User: anonymous
Location: Hopkins Observatory
(42.6965°N, 73.1843°W)
Time: 01:46:03
(UTC-04:00)
Language:

UOSAT-12 - Orbit

View from above orbital plane
View from above orbital plane
View from above satellite
View from above satellite

Ground track
Ground track

The orbit data is extracted from the following two-line orbital elements,

1 25693U 99021A   14212.74474176  .00000136  00000-0  36846-4 0  5522
2 25693 064.5571 125.0855 0048775 282.7520 105.2501 14.79993521824512
Epoch (UTC): 31 July 2014 17:52:25
Eccentricity: 0.0048775
inclination: 64.5571°
perigee height: 595 km
apogee height: 663 km
right ascension of ascending node: 125.0855°
argument of perigee: 282.7520°
revolutions per day: 14.79993521
mean anomaly at epoch: 105.2501°
orbit number at epoch: 82451

The dashed part of the orbit path shows where the satellite is in the earth's shadow,  

DLR